Location: Lafig�re
(44.4503°N, 4.0357°E)
Time: 01:08:43
(UTC+00:00)

Transit 4A - Pass Details

Date: 21 January 2021
Orbit: 866 x 979 km, 66.8° (Epoch: 24 February)

Event Time Altitude Azimuth Distance (km) Brightness Sun altitude
Rises 02:01:48 0° 331° (NNW) 3,655 - -54.0°
Reaches altitude 10° 02:05:28 10° 352° (N) 2,687 - -53.5°
Maximum altitude 02:09:21 17° 30° (NNE) 2,211 - -52.9°
Drops below altitude 10° 02:13:10 10° 69° (ENE) 2,633 - -52.3°
Exits shadow 02:14:37 - 79° (E) 2,974 11.0 -52.1°
Sets 02:16:41 0° 90° (E) 3,549 11.4 -51.8°
